Weather in Krasulino

Russia / Kemerovo Oblast     54°01′29″N   87°04′47″E
temp.,
°C
wind,
m/s
gust,
m/s
humid.,
%
clouds,
%
prec.,
mm/h
press.,
hPa
HPBL,
m
19 september, sun
sun1901:00+7wnw22712 0.0 101129
04:00+5sw2274100 0.0 101214
07:00+5ssw227394 0.0 101233
10:00+10s465614 0.0 1011537
13:00+14ssw5741100 0.0 10081446
16:00+16sw5833100 0.0 10071641
19:00+13sse2243100 0.0 100516
22:00+12sw71952100 0.0 10061642
20 september, mon
mon2001:00+7w3777100 0.1 1007219
04:00+7sw3681100 0.4 1008337
07:00+6sw61179100 1.9 1011491
10:00+7wsw8126816 0.1 10131319
13:00+9wsw91246100 0.3 10132178
16:00+9wsw81246100 0.0 10132092
19:00+7sw4852100 0.0 1013328
22:00+5ssw3759100 0.0 1013194
21 september, tue
tue2101:00+5sw51081100 0.0 1013736
04:00+3wsw61189100 0.3 1014805
07:00+2sw6108899 0.3 1015718
10:00+3wsw61089100 0.3 1016959
13:00+5wsw8106387 0.5 10161448
16:00+6wsw81058100 0.1 10161385
19:00+3wsw6109299 0.1 1018755
22:00+3wsw5996100 0.3 1019712
22 september, wed
wed2201:00+3wsw4897100 0.5 1020652
04:00+2wsw3789100 0.2 1020416
07:00+2sw4789100 0.3 1021284
10:00+4sw5781100 0.1 1022792
13:00+6wsw5766100 0.7 10211376
16:00+6sw5762100 0.4 10211343
19:00+4sw3581100 0.8 1021157
22:00+3sw228499 0.2 102240
23 september, thu
thu2301:00+2ssw2489100 0.3 1022352
04:00+1sw2399100 0.8 1022140
07:00+2ssw2499100 1.2 1022208
10:00+2ssw2499100 0.7 1023235
13:00+3ssw3590100 1.4 1023544
16:00+4sw3485100 0.6 1023654
19:00+2ssw2395100 1.3 1023313
22:00+2sw1298100 0.1 1024189